JTA50 ROAH-RJFF

Flight info

Callsign JTA50
Flight time 1h 22m
Altitude 37000
Route AMAMI Y25 GOKYO/N0461F380 Y25 ISKUP
Aircraft B738/M-SDE2E3FGHIRWXY/LB1

Departure

Time 2026-04-26 12:26
Airport Naha International Airport (ROAH)

Arrival

Time 2026-04-26 13:48
Airport Fukuoka Airport (RJFF)
Time Latitude Longitude Altitude Speed Heading
2026-04-26 12:05 26.20722 127.64855 28 ft 0 kts 48°
2026-04-26 12:17 26.20722 127.64854 27 ft 0 kts 48°
2026-04-26 12:17 26.20715 127.64846 27 ft 2 kts 48°
2026-04-26 12:17 26.20705 127.64834 27 ft 2 kts 48°
2026-04-26 12:17 26.20695 127.64821 26 ft 2 kts 48°
2026-04-26 12:18 26.20685 127.64809 26 ft 2 kts 48°
2026-04-26 12:18 26.20675 127.64796 26 ft 2 kts 46°
2026-04-26 12:18 26.20661 127.64789 26 ft 2 kts
2026-04-26 12:18 26.20646 127.64791 26 ft 2 kts 331°
2026-04-26 12:19 26.20635 127.64803 26 ft 2 kts 298°
2026-04-26 12:19 26.20631 127.64819 26 ft 2 kts 264°
2026-04-26 12:19 26.20632 127.64826 26 ft 1 kts 266°
2026-04-26 12:19 26.20632 127.64827 26 ft 0 kts 267°
2026-04-26 12:21 26.20627 127.64796 26 ft 10 kts 247°
2026-04-26 12:21 26.20571 127.64748 25 ft 10 kts 187°
2026-04-26 12:22 26.20495 127.64751 25 ft 13 kts 178°
2026-04-26 12:22 26.20348 127.64757 25 ft 27 kts 178°
2026-04-26 12:22 26.20156 127.64766 25 ft 27 kts 178°
2026-04-26 12:22 26.19961 127.64775 26 ft 29 kts 178°
2026-04-26 12:23 26.19758 127.64784 28 ft 28 kts 177°
2026-04-26 12:23 26.19566 127.64793 29 ft 27 kts 178°
2026-04-26 12:23 26.19380 127.64803 29 ft 26 kts 178°
2026-04-26 12:23 26.19198 127.64811 29 ft 25 kts 178°
2026-04-26 12:24 26.19017 127.64819 26 ft 25 kts 177°
2026-04-26 12:24 26.18854 127.64826 26 ft 18 kts 178°
2026-04-26 12:24 26.18802 127.64784 25 ft 10 kts 265°
2026-04-26 12:25 26.18823 127.64623 23 ft 12 kts 346°
2026-04-26 12:25 26.19008 127.64613 25 ft 56 kts 357°
2026-04-26 12:25 26.19637 127.64583 28 ft 121 kts 358°
2026-04-26 12:25 26.20660 127.64535 145 ft 162 kts 357°
2026-04-26 12:26 26.21788 127.64482 824 ft 163 kts 357°
2026-04-26 12:26 26.22912 127.64423 1497 ft 169 kts 357°
2026-04-26 12:26 26.24162 127.64365 2045 ft 187 kts 357°
2026-04-26 12:26 26.25503 127.64291 2663 ft 201 kts 351°
2026-04-26 12:27 26.26850 127.63711 3266 ft 216 kts 327°
2026-04-26 12:27 26.28128 127.62743 3946 ft 230 kts 326°
2026-04-26 12:27 26.29509 127.61766 4596 ft 245 kts 328°
2026-04-26 12:27 26.31012 127.60799 5320 ft 257 kts 329°
2026-04-26 12:28 26.32592 127.59816 6211 ft 261 kts 329°
2026-04-26 12:28 26.34189 127.58823 7115 ft 265 kts 329°
2026-04-26 12:28 26.35776 127.57830 7970 ft 269 kts 329°
2026-04-26 12:28 26.37371 127.56745 8845 ft 271 kts 321°
2026-04-26 12:29 26.38704 127.55274 9706 ft 271 kts 303°
2026-04-26 12:29 26.39521 127.53419 10488 ft 275 kts 288°
2026-04-26 12:29 26.39801 127.48972 11509 ft 307 kts 259°
2026-04-26 12:30 26.38915 127.46720 11946 ft 329 kts 240°
2026-04-26 12:30 26.37463 127.44704 12399 ft 345 kts 233°
2026-04-26 12:30 26.35636 127.42833 12717 ft 367 kts 219°
2026-04-26 12:31 26.30592 127.40879 13456 ft 407 kts 189°
2026-04-26 12:31 26.27743 127.40729 14019 ft 416 kts 185°
2026-04-26 12:31 26.24821 127.40743 14650 ft 421 kts 182°
2026-04-26 12:31 26.21860 127.41092 15296 ft 430 kts 171°
2026-04-26 12:32 26.19023 127.42152 15918 ft 439 kts 159°
2026-04-26 12:32 26.16361 127.43890 16540 ft 446 kts 147°
2026-04-26 12:32 26.12030 127.48913 17695 ft 460 kts 121°
2026-04-26 12:33 26.10776 127.52200 18224 ft 465 kts 106°
2026-04-26 12:33 26.10243 127.55746 18777 ft 468 kts 92°
2026-04-26 12:33 26.10275 127.59350 19304 ft 471 kts 84°
2026-04-26 12:33 26.10674 127.62940 19886 ft 473 kts 79°
2026-04-26 12:34 26.11277 127.66584 20398 ft 477 kts 76°
2026-04-26 12:34 26.11970 127.70184 20872 ft 483 kts 75°
2026-04-26 12:34 26.12713 127.73845 21470 ft 485 kts 75°
2026-04-26 12:34 26.13459 127.77505 21914 ft 491 kts 75°
2026-04-26 12:35 26.14203 127.81226 22459 ft 495 kts 75°
2026-04-26 12:35 26.15027 127.84950 22919 ft 498 kts 70°
2026-04-26 12:35 26.16222 127.88590 23464 ft 499 kts 64°
2026-04-26 12:35 26.17729 127.92022 24058 ft 496 kts 57°
2026-04-26 12:36 26.19620 127.95226 24485 ft 496 kts 48°
2026-04-26 12:36 26.21912 127.98094 24950 ft 495 kts 39°
2026-04-26 12:36 26.24506 128.00619 25489 ft 493 kts 33°
2026-04-26 12:36 26.27297 128.02910 25954 ft 493 kts 29°
2026-04-26 12:37 26.30156 128.04996 26442 ft 494 kts 27°
2026-04-26 12:37 26.33103 128.07004 26997 ft 494 kts 25°
2026-04-26 12:37 26.36041 128.08940 27749 ft 490 kts 25°
2026-04-26 12:37 26.38973 128.10855 28409 ft 488 kts 25°
2026-04-26 12:38 26.41874 128.12755 29052 ft 486 kts 25°
2026-04-26 12:38 26.44795 128.14684 29671 ft 484 kts 25°
2026-04-26 12:38 26.47694 128.16611 30246 ft 483 kts 25°
2026-04-26 12:38 26.50575 128.18539 30668 ft 485 kts 25°
2026-04-26 12:39 26.53475 128.20489 30995 ft 489 kts 25°
2026-04-26 12:39 26.56383 128.22453 31405 ft 490 kts 25°
2026-04-26 12:39 26.59319 128.24445 31822 ft 491 kts 25°
2026-04-26 12:39 26.62240 128.26440 32222 ft 492 kts 26°
2026-04-26 12:40 26.65077 128.28600 32606 ft 497 kts 31°
2026-04-26 12:40 26.67801 128.31007 32965 ft 501 kts 36°
2026-04-26 12:40 26.70357 128.33667 33426 ft 503 kts 40°
2026-04-26 12:40 26.72785 128.36552 33696 ft 508 kts 44°
2026-04-26 12:41 26.75093 128.39566 34076 ft 510 kts 46°
2026-04-26 12:41 26.77318 128.42638 34415 ft 512 kts 48°
2026-04-26 12:41 26.79553 128.45811 34791 ft 512 kts 49°
2026-04-26 12:41 26.81757 128.48982 35206 ft 511 kts 49°
2026-04-26 12:42 26.83956 128.52155 35599 ft 511 kts 49°
2026-04-26 12:42 26.86143 128.55304 35932 ft 511 kts 49°
2026-04-26 12:42 26.88378 128.58496 36210 ft 512 kts 48°
2026-04-26 12:42 26.90639 128.61598 36458 ft 513 kts 46°
2026-04-26 12:43 26.93094 128.64526 36764 ft 510 kts 39°
2026-04-26 12:43 26.95742 128.67140 36984 ft 506 kts 33°
2026-04-26 12:43 26.98641 128.69411 36984 ft 503 kts 26°
2026-04-26 12:44 27.04771 128.73172 36986 ft 498 kts 21°
2026-04-26 12:44 27.10973 128.76601 36986 ft 496 kts 21°
2026-04-26 12:45 27.17145 128.80098 36982 ft 498 kts 22°
2026-04-26 12:45 27.23333 128.83749 36982 ft 499 kts 22°
2026-04-26 12:46 27.29454 128.87450 36980 ft 499 kts 23°
2026-04-26 12:46 27.35543 128.91164 36981 ft 501 kts 23°
2026-04-26 12:47 27.41689 128.94928 36982 ft 499 kts 23°
2026-04-26 12:47 27.47834 128.98691 36971 ft 499 kts 23°
2026-04-26 12:48 27.53937 129.02429 36976 ft 499 kts 23°
2026-04-26 12:48 27.60074 129.06190 36976 ft 499 kts 23°
2026-04-26 12:49 27.66195 129.09946 36990 ft 501 kts 23°
2026-04-26 12:49 27.72322 129.13713 36984 ft 499 kts 23°
2026-04-26 12:50 27.78374 129.17439 36981 ft 499 kts 23°
2026-04-26 12:50 27.84489 129.21207 36973 ft 500 kts 23°
2026-04-26 12:51 27.90625 129.24994 36973 ft 500 kts 23°
2026-04-26 12:51 27.96724 129.28761 36982 ft 500 kts 23°
2026-04-26 12:52 28.02859 129.32556 36984 ft 502 kts 23°
2026-04-26 12:52 28.08933 129.36322 36977 ft 501 kts 24°
2026-04-26 12:53 28.15084 129.40137 36972 ft 499 kts 24°
2026-04-26 12:53 28.21184 129.43929 36970 ft 499 kts 23°
2026-04-26 12:54 28.27290 129.47723 36971 ft 503 kts 23°
2026-04-26 12:54 28.33409 129.51532 36971 ft 500 kts 23°
2026-04-26 12:55 28.39525 129.55327 36942 ft 498 kts 22°
2026-04-26 12:55 28.45847 129.58456 36943 ft 490 kts
2026-04-26 12:56 28.52514 129.60001 36955 ft 482 kts
2026-04-26 12:56 28.59127 129.60933 36956 ft 479 kts 359°
2026-04-26 12:57 28.65782 129.61792 36946 ft 478 kts 360°
2026-04-26 12:57 28.72415 129.62711 36938 ft 479 kts
2026-04-26 12:58 28.82384 129.64183 36943 ft 481 kts
2026-04-26 12:58 28.89024 129.65195 36933 ft 478 kts
2026-04-26 12:59 28.95684 129.66216 36947 ft 480 kts
2026-04-26 12:59 29.02319 129.67233 36951 ft 480 kts
2026-04-26 13:00 29.08939 129.68251 36943 ft 479 kts
2026-04-26 13:00 29.15576 129.69269 36937 ft 481 kts
2026-04-26 13:01 29.22193 129.70291 36942 ft 478 kts
2026-04-26 13:01 29.28855 129.71317 36933 ft 478 kts
2026-04-26 13:02 29.35488 129.72340 36932 ft 478 kts
2026-04-26 13:02 29.42083 129.73363 36927 ft 476 kts
2026-04-26 13:03 29.48656 129.74382 36932 ft 477 kts
2026-04-26 13:03 29.55267 129.75407 36926 ft 477 kts
2026-04-26 13:04 29.61863 129.76431 36924 ft 477 kts
2026-04-26 13:04 29.68490 129.77460 36930 ft 478 kts
2026-04-26 13:05 29.75071 129.78487 36920 ft 476 kts
2026-04-26 13:05 29.81686 129.79517 36918 ft 474 kts
2026-04-26 13:06 29.88271 129.80543 36910 ft 475 kts
2026-04-26 13:06 29.94863 129.81572 36906 ft 476 kts
2026-04-26 13:07 30.01407 129.82593 36906 ft 474 kts
2026-04-26 13:07 30.07949 129.83406 36902 ft 471 kts 359°
2026-04-26 13:08 30.14506 129.84070 36903 ft 471 kts 358°
2026-04-26 13:08 30.21098 129.84726 36905 ft 474 kts 358°
2026-04-26 13:09 30.27677 129.85406 36909 ft 470 kts 359°
2026-04-26 13:09 30.34205 129.86101 36908 ft 472 kts 359°
2026-04-26 13:10 30.40777 129.86810 36908 ft 471 kts 359°
2026-04-26 13:10 30.47267 129.87515 36908 ft 469 kts 359°
2026-04-26 13:11 30.53822 129.88226 36914 ft 474 kts 359°
2026-04-26 13:11 30.60365 129.88937 36907 ft 469 kts 359°
2026-04-26 13:12 30.66926 129.89658 36906 ft 469 kts 359°
2026-04-26 13:12 30.73467 129.90370 36903 ft 469 kts 359°
2026-04-26 13:13 30.79995 129.91084 36815 ft 468 kts 359°
2026-04-26 13:13 30.86515 129.91798 36924 ft 472 kts 359°
2026-04-26 13:14 30.93055 129.92517 36906 ft 471 kts 359°
2026-04-26 13:14 30.99607 129.93237 36906 ft 471 kts 359°
2026-04-26 13:15 31.06157 129.93961 36907 ft 470 kts 359°
2026-04-26 13:15 31.11524 129.94551 36902 ft 470 kts 359°
2026-04-26 13:16 31.19211 129.95398 36904 ft 471 kts 359°
2026-04-26 13:16 31.25735 129.96121 36903 ft 468 kts 359°
2026-04-26 13:17 31.35527 129.97087 36908 ft 468 kts 358°
2026-04-26 13:18 31.45247 129.97816 36903 ft 466 kts 357°
2026-04-26 13:19 31.54990 129.98550 36903 ft 466 kts 357°
2026-04-26 13:19 31.61471 129.99057 36906 ft 465 kts 358°
2026-04-26 13:20 31.67982 129.99565 36908 ft 469 kts 358°
2026-04-26 13:20 31.74491 130.00084 36907 ft 466 kts 358°
2026-04-26 13:21 31.80981 130.00603 36886 ft 467 kts 358°
2026-04-26 13:21 31.87482 130.01119 36910 ft 467 kts 358°
2026-04-26 13:22 31.93987 130.01642 36902 ft 467 kts 358°
2026-04-26 13:22 32.00504 130.02165 36911 ft 468 kts 358°
2026-04-26 13:23 32.06979 130.02684 36899 ft 465 kts 358°
2026-04-26 13:23 32.13471 130.03209 36897 ft 465 kts 358°
2026-04-26 13:24 32.19955 130.03731 36913 ft 467 kts 358°
2026-04-26 13:24 32.26438 130.04251 36917 ft 467 kts 358°
2026-04-26 13:25 32.32937 130.04781 36913 ft 464 kts 358°
2026-04-26 13:25 32.39363 130.05304 36585 ft 457 kts 358°
2026-04-26 13:25 32.42525 130.05565 36169 ft 451 kts 358°
2026-04-26 13:26 32.45646 130.05821 35644 ft 448 kts 358°
2026-04-26 13:26 32.48774 130.06076 35051 ft 448 kts 358°
2026-04-26 13:26 32.51908 130.06329 34382 ft 451 kts 359°
2026-04-26 13:26 32.55045 130.06566 33648 ft 453 kts 358°
2026-04-26 13:27 32.58197 130.06676 32798 ft 455 kts 355°
2026-04-26 13:27 32.61383 130.06511 31959 ft 453 kts 350°
2026-04-26 13:27 32.64503 130.06038 31059 ft 449 kts 347°
2026-04-26 13:27 32.67525 130.05397 30018 ft 441 kts 345°
2026-04-26 13:28 32.70499 130.04671 28571 ft 442 kts 345°
2026-04-26 13:28 32.73484 130.03893 27017 ft 444 kts 345°
2026-04-26 13:28 32.76482 130.03091 25557 ft 443 kts 345°
2026-04-26 13:28 32.79471 130.02295 24277 ft 437 kts 345°
2026-04-26 13:29 32.82416 130.01518 23252 ft 434 kts 345°
2026-04-26 13:29 32.84383 130.01003 22918 ft 428 kts 346°
2026-04-26 13:29 32.88209 130.00009 22284 ft 417 kts 346°
2026-04-26 13:29 32.91048 129.99278 21728 ft 411 kts 346°
2026-04-26 13:30 32.93819 129.98566 21158 ft 407 kts 346°
2026-04-26 13:30 32.96573 129.97858 20587 ft 402 kts 346°
2026-04-26 13:30 32.99328 129.97151 20007 ft 398 kts 346°
2026-04-26 13:30 33.02026 129.96462 19433 ft 394 kts 346°
2026-04-26 13:31 33.04692 129.95778 18866 ft 390 kts 346°
2026-04-26 13:31 33.07314 129.95106 18305 ft 385 kts 346°
2026-04-26 13:31 33.09905 129.94441 17747 ft 381 kts 346°
2026-04-26 13:31 33.12496 129.93774 17187 ft 378 kts 346°
2026-04-26 13:32 33.15074 129.93112 16621 ft 374 kts 346°
2026-04-26 13:32 33.17633 129.92453 16092 ft 386 kts 346°
2026-04-26 13:32 33.20267 129.91801 15928 ft 387 kts 349°
2026-04-26 13:32 33.22968 129.91548 15928 ft 393 kts 357°
2026-04-26 13:33 33.25733 129.91623 15926 ft 395 kts
2026-04-26 13:33 33.28484 129.91817 15928 ft 395 kts
2026-04-26 13:33 33.31239 129.92050 15699 ft 394 kts
2026-04-26 13:33 33.33955 129.92296 15317 ft 385 kts
2026-04-26 13:34 33.36586 129.92539 14813 ft 379 kts
2026-04-26 13:34 33.39197 129.92775 14276 ft 374 kts
2026-04-26 13:34 33.41776 129.93002 13735 ft 370 kts
2026-04-26 13:34 33.43488 129.93150 13388 ft 366 kts
2026-04-26 13:35 33.46868 129.93434 12986 ft 368 kts
2026-04-26 13:35 33.49490 129.93646 12977 ft 378 kts
2026-04-26 13:35 33.52107 129.93854 12978 ft 375 kts
2026-04-26 13:35 33.54669 129.94060 12847 ft 360 kts
2026-04-26 13:36 33.57112 129.94260 12631 ft 347 kts
2026-04-26 13:36 33.59494 129.94453 12388 ft 333 kts
2026-04-26 13:36 33.61767 129.94636 11954 ft 318 kts
2026-04-26 13:36 33.63915 129.94804 11533 ft 304 kts
2026-04-26 13:37 33.66005 129.94965 11161 ft 291 kts
2026-04-26 13:37 33.67981 129.95110 10777 ft 279 kts
2026-04-26 13:37 33.69878 129.95244 10293 ft 274 kts
2026-04-26 13:37 33.71780 129.95372 9731 ft 271 kts
2026-04-26 13:38 33.73651 129.95488 9152 ft 269 kts
2026-04-26 13:38 33.75503 129.95593 8615 ft 265 kts
2026-04-26 13:38 33.77321 129.95683 8108 ft 261 kts
2026-04-26 13:38 33.79103 129.95970 7959 ft 258 kts 19°
2026-04-26 13:39 33.80629 129.97153 7977 ft 264 kts 46°
2026-04-26 13:39 33.81537 129.99059 7940 ft 266 kts 71°
2026-04-26 13:39 33.81904 130.01216 7498 ft 262 kts 80°
2026-04-26 13:39 33.82116 130.03395 6947 ft 262 kts 81°
2026-04-26 13:40 33.82294 130.05551 6519 ft 263 kts 82°
2026-04-26 13:40 33.82463 130.07739 6193 ft 261 kts 82°
2026-04-26 13:40 33.82625 130.09898 5883 ft 257 kts 82°
2026-04-26 13:40 33.82786 130.12003 5564 ft 255 kts 82°
2026-04-26 13:41 33.82954 130.14142 5263 ft 252 kts 82°
2026-04-26 13:41 33.83122 130.16206 4966 ft 249 kts 82°
2026-04-26 13:41 33.83296 130.18278 4653 ft 248 kts 82°
2026-04-26 13:41 33.83474 130.20331 4358 ft 245 kts 82°
2026-04-26 13:42 33.83651 130.22336 4097 ft 242 kts 82°
2026-04-26 13:42 33.83828 130.24315 3994 ft 232 kts 82°
2026-04-26 13:42 33.83718 130.26202 3917 ft 223 kts 108°
2026-04-26 13:42 33.82971 130.27785 3826 ft 217 kts 127°
2026-04-26 13:43 33.81864 130.29048 3773 ft 220 kts 141°
2026-04-26 13:43 33.80580 130.30067 3720 ft 222 kts 147°
2026-04-26 13:43 33.79244 130.30991 3666 ft 221 kts 148°
2026-04-26 13:43 33.77891 130.31903 3616 ft 222 kts 148°
2026-04-26 13:44 33.76546 130.32820 3564 ft 221 kts 148°
2026-04-26 13:44 33.75210 130.33736 3525 ft 214 kts 148°
2026-04-26 13:44 33.73949 130.34595 3386 ft 206 kts 148°
2026-04-26 13:44 33.72681 130.35465 3011 ft 209 kts 148°
2026-04-26 13:45 33.71431 130.36319 2719 ft 207 kts 148°
2026-04-26 13:45 33.70188 130.37166 2438 ft 204 kts 148°
2026-04-26 13:45 33.68961 130.38005 2156 ft 202 kts 148°
2026-04-26 13:45 33.67742 130.38837 1879 ft 199 kts 148°
2026-04-26 13:46 33.66541 130.39656 1610 ft 196 kts 148°
2026-04-26 13:46 33.65409 130.40428 1390 ft 176 kts 149°
2026-04-26 13:46 33.64403 130.41115 1109 ft 160 kts 149°
2026-04-26 13:46 33.63466 130.41754 904 ft 149 kts 149°
2026-04-26 13:47 33.62567 130.42366 718 ft 149 kts 149°
2026-04-26 13:47 33.61684 130.42969 525 ft 146 kts 150°
2026-04-26 13:47 33.60802 130.43573 332 ft 146 kts 150°
2026-04-26 13:47 33.59911 130.44170 155 ft 144 kts 149°
2026-04-26 13:48 33.59052 130.44756 42 ft 135 kts 150°
2026-04-26 13:48 33.58456 130.45158 40 ft 58 kts 150°
2026-04-26 13:48 33.58212 130.45343 40 ft 38 kts 140°
2026-04-26 13:48 33.58073 130.45537 40 ft 13 kts 116°
2026-04-26 13:49 33.58092 130.45612 40 ft 9 kts 29°
2026-04-26 13:49 33.58153 130.45596 40 ft 9 kts 330°
2026-04-26 13:49 33.58208 130.45560 40 ft 8 kts 330°
2026-04-26 13:49 33.58263 130.45523 40 ft 8 kts 329°
2026-04-26 13:50 33.58315 130.45487 40 ft 8 kts 329°
2026-04-26 13:50 33.58369 130.45450 40 ft 8 kts 330°
2026-04-26 13:50 33.58443 130.45399 40 ft 18 kts 330°
2026-04-26 13:50 33.58585 130.45302 40 ft 25 kts 329°
2026-04-26 13:51 33.58742 130.45193 40 ft 25 kts 330°
2026-04-26 13:51 33.58895 130.45091 40 ft 25 kts 331°
2026-04-26 13:51 33.59046 130.44986 40 ft 24 kts 330°
2026-04-26 13:51 33.59182 130.44894 41 ft 12 kts 330°
2026-04-26 13:52 33.59251 130.44856 41 ft 9 kts 350°
2026-04-26 13:52 33.59319 130.44853 40 ft 9 kts 359°
2026-04-26 13:52 33.59387 130.44852 40 ft 9 kts 343°
2026-04-26 13:52 33.59446 130.44814 40 ft 9 kts 330°
2026-04-26 13:53 33.59504 130.44774 40 ft 9 kts 330°
2026-04-26 13:53 33.59559 130.44769 40 ft 8 kts 53°
2026-04-26 13:53 33.59584 130.44817 40 ft 4 kts 59°
2026-04-26 13:53 33.59594 130.44836 40 ft 0 kts 60°